Flag for Canada Weather past 2 weeks in Rouyn-Noranda, Quebec, Canada

Now
57 °F

Passing clouds.


Feels Like: 55 °F
Forecast: 55 / 75 °F
Wind: 8 mph from Southwest

Location: Rouyn Airport

Current Time: Jul 25, 2014 at 5:42:15 AM

Latest Report: Jul 25, 2014 at 5:00 AM


Visibility: 15 mi

Pressure: 29.87 "Hg

Humidity: 88%

Dew point: 54 °F

Location of Rouyn-NorandaLocation

Historic Weather in Rouyn-Noranda — Graph

°F

Rouyn-Noranda temperature yesterday

Maximum temperature yesterday: 72 °F (at 4:00 PM)
Minimum temperature yesterday: 43 °F (at 12:00 AM)
Average temperature yesterday: 57 °F

Past Weeks' High & Low Weather Summary

 TemperatureHumidityPressure
High79 °F (Jul 18, 5:00 PM)100% (Jul 10, 5:00 AM)30.20 "Hg (Jul 10, 5:00 AM)
Low43 °F (Jul 24, 12:00 AM)39% (Jul 19, 2:00 PM)29.55 "Hg (Jul 13, 3:00 PM)
Average62 °F76%29.95 "Hg
* Reported Jul 10 4:00 AM — Jul 25 4:00 AM, Rouyn-Noranda, Weather by CustomWeather, © 2014

Note: Actual official high and low records may vary slightly from our data, if they occured in-between our weather recording intervals... More about our weather records

Advertising

Rouyn-Noranda weather history for previous 24 hours

 ConditionsComfort  
Time TempWeatherWind HumidityBarometerVisibility
4:00 AM
Jul 25
57 °FOvercast.6 mph82%29.86 "Hg15 mi
3:00 AM57 °FOvercast.6 mph88%29.87 "Hg15 mi
2:00 AM61 °FOvercast.7 mph77%29.89 "Hg15 mi
1:00 AM59 °FOvercast.8 mph82%29.90 "Hg15 mi
12:00 AM59 °FPassing clouds.9 mph82%29.89 "Hg15 mi
11:00 PM
Jul 24
61 °FPassing clouds.9 mph83%29.88 "Hg15 mi
10:00 PM61 °FBroken clouds.5 mph83%29.88 "Hg15 mi
9:00 PM63 °FBroken clouds.5 mph83%29.88 "Hg12 mi
8:00 PM66 °FBroken clouds.6 mph68%29.87 "Hg12 mi
7:00 PM68 °FBroken clouds.6 mph64%29.87 "Hg15 mi
6:00 PM70 °FScattered clouds.10 mph60%29.88 "Hg15 mi
5:00 PM68 °FPartly sunny.7 mph60%29.89 "Hg15 mi
4:00 PM72 °FBroken clouds.10 mph53%29.90 "Hg15 mi
3:00 PM68 °FPartly sunny.18 mph60%29.92 "Hg15 mi
2:00 PM66 °FPartly sunny.17 mph64%29.93 "Hg15 mi
1:00 PM66 °FBroken clouds.13 mph64%29.95 "Hg15 mi
12:00 PM64 °FPartly sunny.10 mph73%29.96 "Hg15 mi
11:00 AM61 °FCloudy.12 mph72%29.96 "Hg15 mi
10:00 AM59 °FPartly sunny.8 mph77%29.97 "Hg15 mi
9:00 AM54 °FBroken clouds.8 mph88%29.98 "Hg15 mi
8:00 AM52 °FMostly cloudy.8 mph88%29.98 "Hg15 mi
7:00 AM48 °FBroken clouds.7 mph94%29.99 "Hg15 mi
6:00 AM46 °FPartly cloudy.5 mph93%29.98 "Hg15 mi
5:00 AM45 °FPassing clouds.6 mph100%30.00 "Hg15 mi
Weather by CustomWeather, © 2014

See weather overviewHow to use our weather pages